HAWK-3C (48948 NORAD) Tracking and Keplerian Element Data

This shows tracking and keplerian element data for the satellite.

Feedback or suggestion? Click here.




ElementValue
Catalog48948
NameHAWK-3C
Epoch Orbit1287
Epoch Day261.90023735
Epoch Year2021
RAAN29.7053
Inclination97.5327
Eccentricity0.0016478
Argument of Perigee330.9193
Mean Anonmoly29.1119
Mean Motion15.13891585
Decay Rate6.96E-06
L11 48948U 21059BX 21261.90023735 .00000696 00000-0 42027-4 0 9991
L22 48948 97.5327 29.7053 0016478 330.9193 29.1119 15.13891585 12875

Live tracking and technical data element details for HAWK-3C (NORAD 48948). HAWK-3C can be tracked NOW for your location showing map with azimuth and elevation plus other details from your city location.

Track the satellite on the map from your city or location and see movement details for azimuth, elevation, latitude, longitude, range, height, and movement on the map or in text.







IsCatalogInMostPopularTable: catalog: 48948, numindb: 11
Update: records affected: 1



GetName: 48948 HAWK-3C

Hit Count: updated at: Fri, 24 Sep 2021 18:26:43 GMT